Weather History for KINJ - September, 2013

Change the Weather History Date:

Thursday, September 19, 2013

  Actual Average (KACT) Record (KACT)
Temperature  
Mean Temperature 81 °F 77 °F  
Max Temperature 91 °F 89 °F 104 °F (1956)
Min Temperature 72 °F 65 °F 45 °F (1981)
Degree Days  
Heating Degree Days 0 0  
Month to date heating degree days 0  
Since 1 July heating degree days 0  
Cooling Degree Days 16 12  
Month to date cooling degree days 284  
Year to date cooling degree days 2479  
Growing Degree Days 31 (Base 50)    
Moisture  
Dew Point 68 °F    
Average Humidity 66    
Maximum Humidity 90    
Minimum Humidity 45    
Precipitation  
Precipitation 0.25 in 0.10 in 1.57 in (1988)
Month to date precipitation 1.92  
Year to date precipitation 24.08  
Sea Level Pressure  
Sea Level Pressure 29.94 in    
Wind  
Wind Speed 9 mph (SE)    
Max Wind Speed 16 mph    
Max Gust Speed 32 mph    
Visibility 10 miles    
Events Rain , Thunderstorm    
T = Trace of Precipitation, MM = Missing Value Source: NWS Daily Summary

Daily Weather History Graph

Daily Weather History Graph

Search for Another Location

Airport or City:

Trip Planner

Search our weather history database for the weather conditions in past years. The results will help you decide how hot, cold, wet, or windy it might be!

Date:

Astronomy

Sep. 19, 2013 Rise Set
Actual Time 7:14 AM CDT 7:28 PM CDT
Civil Twilight 6:50 AM CDT 7:53 PM CDT
Nautical Twilight 6:21 AM CDT 8:21 PM CDT
Astronomical Twilight 5:52 AM CDT 8:50 PM CDT
Moon 7:32 PM CDT (9/19) 7:22 AM CDT (9/19)
Length of Visible Light 13h 02m
Length of Day
12h 13m
Full, 100% of the Moon is Illuminated
Sep 19
Full
Sep 26
Last Quarter
Oct 4
New
Oct 11
First Quarter
Oct 18
Full

Hourly Weather History & Observations

Time (CDT) Temp. Heat Index Dew Point Humidity Pressure Visibility Wind Dir Wind Speed Gust Speed Precip Events Conditions
12:15 AM 85.6 °F 87.9 °F 66.2 °F 52% 29.95 in 10.0 mi SSE 15.0 mph - N/A   Clear
12:35 AM 85.3 °F 87.6 °F 66.6 °F 53% 29.95 in 10.0 mi SSE 15.0 mph 19.6 mph N/A   Clear
12:55 AM 84.7 °F 87.1 °F 66.6 °F 54% 29.95 in 10.0 mi SSE 13.8 mph 19.6 mph N/A   Clear
1:15 AM 84.2 °F 86.6 °F 66.4 °F 55% 29.95 in 10.0 mi SSE 11.5 mph - N/A   Clear
1:35 AM 83.8 °F 86.3 °F 66.4 °F 56% 29.95 in 10.0 mi SSE 11.5 mph - N/A   Clear
1:55 AM 83.3 °F 85.5 °F 66.2 °F 56% 29.95 in 10.0 mi SSE 10.4 mph - N/A   Scattered Clouds
2:15 AM 82.6 °F 84.7 °F 65.8 °F 57% 29.95 in 10.0 mi SSE 10.4 mph - N/A   Clear
2:35 AM 82.0 °F 83.8 °F 65.1 °F 56% 29.95 in 10.0 mi SSE 10.4 mph - N/A   Clear
2:55 AM 81.5 °F 83.3 °F 64.8 °F 57% 29.95 in 10.0 mi SSE 10.4 mph - N/A   Clear
3:15 AM 81.0 °F 82.7 °F 64.9 °F 58% 29.95 in 10.0 mi SSE 9.2 mph - N/A   Clear
3:35 AM 80.6 °F 82.4 °F 65.1 °F 59% 29.94 in 10.0 mi SSE 9.2 mph - N/A   Clear
3:55 AM 79.7 °F - 64.9 °F 61% 29.94 in 10.0 mi SSE 8.1 mph - N/A   Clear
4:15 AM 78.8 °F - 64.9 °F 62% 29.94 in 10.0 mi SSE 6.9 mph - N/A   Clear
4:35 AM 78.4 °F - 65.3 °F 64% 29.94 in 10.0 mi SSE 6.9 mph - N/A   Clear
4:55 AM 78.6 °F - 65.7 °F 64% 29.94 in 10.0 mi SE 8.1 mph - N/A   Clear
5:15 AM 78.8 °F - 66.0 °F 65% 29.94 in 10.0 mi SSE 8.1 mph - N/A   Clear
5:35 AM 78.8 °F - 66.2 °F 65% 29.94 in 10.0 mi SSE 8.1 mph - N/A   Clear
6:15 AM 78.4 °F - 66.9 °F 68% 29.95 in 10.0 mi SSE 8.1 mph - N/A   Clear
6:35 AM 78.3 °F - 67.6 °F 70% 29.95 in 10.0 mi SSE 6.9 mph - N/A   Clear
6:55 AM 78.1 °F - 68.2 °F 71% 29.95 in 10.0 mi SSE 6.9 mph - N/A   Clear
7:15 AM 78.1 °F - 68.9 °F 73% 29.96 in 10.0 mi SE 6.9 mph - N/A   Clear
7:35 AM 77.9 °F - 68.9 °F 74% 29.97 in 10.0 mi SSE 5.8 mph - N/A   Scattered Clouds
7:55 AM 78.1 °F - 68.9 °F 73% 29.98 in 10.0 mi SSE 6.9 mph - N/A   Scattered Clouds
8:15 AM 78.1 °F - 69.1 °F 74% 29.98 in 10.0 mi SE 5.8 mph - N/A   Scattered Clouds
8:35 AM 78.1 °F - 68.5 °F 72% 29.98 in 10.0 mi SE 4.6 mph - N/A   Clear
8:55 AM 78.8 °F - 69.1 °F 72% 29.98 in 10.0 mi SE 6.9 mph - N/A   Clear
9:15 AM 79.2 °F - 69.8 °F 73% 29.99 in 10.0 mi SSE 8.1 mph - N/A   Scattered Clouds
9:35 AM 79.7 °F - 70.3 °F 73% 30.00 in 10.0 mi SSE 8.1 mph - N/A Rain Light Rain
9:55 AM 79.7 °F - 70.7 °F 74% 30.00 in 10.0 mi SE 6.9 mph - N/A   Clear
10:15 AM 80.6 °F 84.2 °F 70.7 °F 72% 30.01 in 10.0 mi South 6.9 mph - N/A   Clear
10:55 AM 82.0 °F 85.9 °F 70.2 °F 67% 30.01 in 10.0 mi SSE 8.1 mph - N/A   Scattered Clouds
11:15 AM 82.8 °F 86.7 °F 69.8 °F 65% 30.01 in 10.0 mi SSE 9.2 mph - N/A   Mostly Cloudy
11:35 AM 82.9 °F 86.5 °F 69.3 °F 63% 30.01 in 10.0 mi SSE 9.2 mph - N/A   Scattered Clouds
11:55 AM 82.9 °F 86.7 °F 69.4 °F 64% 30.01 in 10.0 mi South 6.9 mph - N/A   Scattered Clouds
12:15 PM 83.5 °F 87.2 °F 69.3 °F 62% 30.00 in 10.0 mi SE 5.8 mph - N/A   Scattered Clouds
12:35 PM 83.8 °F 87.5 °F 69.1 °F 61% 29.99 in 10.0 mi SE 4.6 mph - N/A   Clear
12:55 PM 84.4 °F 87.9 °F 68.7 °F 59% 29.98 in 10.0 mi South 4.6 mph - N/A   Clear
1:15 PM 84.4 °F 87.6 °F 68.4 °F 58% 29.98 in 10.0 mi South 5.8 mph - N/A   Clear
1:35 PM 85.1 °F 88.5 °F 68.2 °F 57% 29.97 in 10.0 mi SE 4.6 mph - N/A   Clear
1:55 PM 84.7 °F 87.6 °F 67.6 °F 56% 29.96 in 10.0 mi South 5.8 mph - N/A   Clear
2:15 PM 85.5 °F 88.5 °F 67.8 °F 55% 29.95 in 10.0 mi Calm Calm - N/A   Clear
2:35 PM 86.9 °F 90.3 °F 67.6 °F 53% 29.93 in 10.0 mi NW 3.5 mph - N/A   Clear
2:55 PM 88.2 °F 91.3 °F 67.3 °F 50% 29.92 in 10.0 mi WNW 3.5 mph - N/A   Clear
3:15 PM 90.3 °F 93.4 °F 67.1 °F 46% 29.91 in 10.0 mi NNW 6.9 mph - N/A   Scattered Clouds
3:35 PM 88.7 °F 91.1 °F 66.4 °F 47% 29.90 in 10.0 mi Calm Calm - N/A   Scattered Clouds
3:55 PM 90.5 °F 93.3 °F 66.4 °F 45% 29.89 in 10.0 mi Calm Calm - N/A   Scattered Clouds
4:15 PM 90.5 °F 93.3 °F 66.2 °F 45% 29.88 in 10.0 mi NNE 5.8 mph - N/A   Scattered Clouds
4:35 PM 89.8 °F 92.1 °F 65.8 °F 45% 29.87 in 10.0 mi North 4.6 mph - N/A   Scattered Clouds
4:55 PM 87.1 °F 89.9 °F 66.7 °F 51% 29.88 in 10.0 mi East 16.1 mph 32.2 mph N/A   Scattered Clouds
5:15 PM 84.6 °F 87.6 °F 68.0 °F 57% 29.87 in 10.0 mi ENE 11.5 mph - N/A   Scattered Clouds
5:35 PM 84.2 °F 86.8 °F 67.1 °F 56% 29.87 in 10.0 mi ENE 9.2 mph - N/A   Clear
5:55 PM 84.2 °F 86.8 °F 66.7 °F 56% 29.88 in 10.0 mi ENE 9.2 mph - N/A   Scattered Clouds
6:35 PM 84.2 °F 86.6 °F 66.2 °F 55% 29.88 in 10.0 mi ENE 6.9 mph - N/A   Scattered Clouds
6:55 PM 80.4 °F 83.4 °F 69.1 °F 68% 29.90 in 10.0 mi East 8.1 mph - N/A Rain , Thunderstorm Light Thunderstorms and Rain
7:15 PM 78.6 °F - 70.7 °F 77% 29.91 in 7.0 mi East 4.6 mph - 0.03 in Rain , Thunderstorm Rain
7:35 PM 77.2 °F - 70.9 °F 81% 29.93 in 5.0 mi SE 16.1 mph 19.6 mph 0.08 in Rain , Thunderstorm Thunderstorms and Rain
7:55 PM 73.0 °F - 67.5 °F 83% 29.92 in 10.0 mi East 12.7 mph 19.6 mph 0.10 in Rain , Thunderstorm Light Thunderstorms and Rain
8:15 PM 72.7 °F - 67.8 °F 85% 29.93 in 10.0 mi ENE 10.4 mph - 0.01 in Rain , Thunderstorm Light Thunderstorms and Rain
8:35 PM 72.9 °F - 68.9 °F 87% 29.92 in 10.0 mi ENE 5.8 mph - 0.01 in Thunderstorm Unknown
8:55 PM 73.2 °F - 69.3 °F 87% 29.92 in 10.0 mi NE 6.9 mph - 0.01 in Thunderstorm Scattered Clouds
9:15 PM 73.4 °F - 69.8 °F 88% 29.92 in 10.0 mi NE 9.2 mph - N/A   Scattered Clouds
9:35 PM 73.9 °F - 70.2 °F 88% 29.92 in 10.0 mi ENE 9.2 mph - N/A Rain Light Rain
9:55 PM 73.9 °F - 70.3 °F 88% 29.92 in 10.0 mi NE 9.2 mph - N/A   Mostly Cloudy
10:15 PM 74.1 °F - 70.7 °F 89% 29.92 in 10.0 mi ENE 9.2 mph - N/A   Scattered Clouds
10:35 PM 74.3 °F - 70.9 °F 89% 29.93 in 10.0 mi ENE 8.1 mph - N/A Rain Light Rain
10:55 PM 74.3 °F - 70.9 °F 89% 29.93 in 7.0 mi ENE 9.2 mph - 0.05 in Rain Light Rain
11:15 PM 74.3 °F - 70.9 °F 89% 29.93 in 7.0 mi ENE 10.4 mph - 0.02 in Rain Light Rain
11:35 PM 74.3 °F - 71.2 °F 90% 29.93 in 7.0 mi ENE 8.1 mph - 0.05 in Rain Rain
11:55 PM 74.3 °F - 71.1 °F 90% 29.93 in 7.0 mi ENE 8.1 mph - 0.09 in Rain Rain